Location: Kikino
(54.4440°N, 112.0940°W)
Time: 17:59:35
(UTC+00:00)

A-11 Canister half - Pass Details

Date: 25 May 2024
Orbit: 1525 x 1683 km, 47.3° (Epoch: 12 June)

Event Time Altitude Azimuth Distance (km) Brightness Sun altitude
Rises 10:05:43 0° 283° (WNW) 4,773 11.3 -7.0°
Reaches altitude 10° 10:09:15 10° 273° (W) 3,810 10.7 -6.7°
Maximum altitude 10:17:10 30° 218° (SW) 2,618 9.7 -6.0°
Drops below altitude 10° 10:25:18 10° 163° (SSE) 3,899 10.8 -5.2°
Sets 10:28:59 0° 153° (SSE) 4,901 11.4 -4.9°
